Location: Arrien
(42.8963°N, 1.0429°E)
Time: 15:14:18
(UTC+00:00)

Spot 4 Rocket - Pass Details

Date: 11 December 2025
Orbit: 769 x 773 km, 98.8° (Epoch: 19 January)

Event Time Altitude Azimuth Distance (km) Brightness Sun altitude
Rises 18:15:26 0° 161° (SSE) 3,229 7.2 -20.1°
Reaches altitude 10° 18:17:44 10° 160° (SSE) 2,307 6.4 -20.5°
Maximum altitude 18:22:49 80° 74° (ENE) 788 3.9 -21.4°
Drops below altitude 10° 18:27:56 10° 348° (NNW) 2,327 6.5 -22.3°
Sets 18:30:16 0° 348° (NNW) 3,259 7.3 -22.7°
